Regional Weather Roundup
Issued by NWS Jackson, KY

Home | Current Version | Previous Version | Graphics & Text | Print | Product List | Glossary On
Versions: 1 2 3 4 5 6 7 8 9 10 11 12 13 14 15 16 17 18 19 20 21 22 23 24 25 26 27 28 29 30 31 32 33 34 35 36 37 38 39 40 41 42 43 44 45 46 47 48 49 50
000
ASUS43 KJKL 271810
RWRJKL

EAST KENTUCKY HOURLY WEATHER ROUNDUP
NATIONAL WEATHER SERVICE JACKSON KY
100 PM EST FRI FEB 27 2015

NOTE: "FAIR" INDICATES FEW OR NO CLOUDS BELOW 12,000 FEET WITH
NO SIGNIFICANT WEATHER AND/OR OBSTRUCTIONS TO VISIBILITY.

* THESE REPORTS ARE NOT UNDER NWS QUALITY CONTROL AND MAY NOT
  REPORT WEATHER SUCH AS PRECIPITATION AND FOG.

KYZ079-080-083-085-087-088-110-112-115-119-120-271900
...EASTERN KENTUCKY...

CITY           SKY/WX    TMP DP  RH WIND       PRES   REMARKS
JACKSON        SUNNY     23   5  46 NW8       30.50F WCI  14
6HR MIN TEMP:  11; 6HR MAX TEMP:  23;

LONDON         SUNNY     25   5  42 VRB5      30.52F WCI  19
6HR MIN TEMP:  14; 6HR MAX TEMP:  25;

SOMERSET*      SUNNY     21   7  53 NE7       30.57F WCI  13
MONTICELLO*    SUNNY     24   9  53 NE8       30.57F WCI  15
6HR MIN TEMP:  14; 6HR MAX TEMP:  24;

MIDDLESBORO*   SUNNY     26  12  56 NW5       30.51S WCI  20
6HR MIN TEMP:  19; 6HR MAX TEMP:  26;

HAZARD APT*    MOCLDY    23   7  50 CALM      30.51S
BLACK MTN*       N/A     27  16  63 N6          N/A  WCI  20
PIKEVILLE APT* CLOUDY    21   9  58 SW5       30.49S WCI  15
BIG SANDY*     MOCLDY    22   8  53 W6        30.53S WCI  15
6HR MIN TEMP:  15; 6HR MAX TEMP:  23;

MOREHEAD APT*  PTCLDY    19   3  49 NW13      30.59S WCI   7
$$

KYZ035-036-041-042-044-050-067-078-099-271900
...CENTRAL KENTUCKY...

CITY           SKY/WX    TMP DP  RH WIND       PRES   REMARKS
MT STERLING*   MOSUNNY   21   9  58 NW8       30.59F WCI  12
FLEMING/MASON* PTSUNNY   18   3  53 CALM      30.59F
DANVILLE*      MOSUNNY   19   9  63 CALM      30.57F
RICHMOND*      CLOUDY    19   7  58 N3        30.57S
LEXINGTON      MOSUNNY   19   6  57 NW7       30.58F WCI  10
6HR MIN TEMP:   7; 6HR MAX TEMP:  20;

FRANKFORT      MOSUNNY   22   2  42 NE7       30.58F WCI  13
6HR MIN TEMP:   9; 6HR MAX TEMP:  22;

$$

KYZ091>093-OHZ055-061-077-WVZ005-015-034-035-042-271900
...SOUTHERN OHIO/WEST VIRGINIA...

CITY           SKY/WX    TMP DP  RH WIND       PRES   REMARKS
COVINGTON      MOSUNNY   19   2  47 N9        30.58F WCI   8
COLUMBUS       CLOUDY    16   2  54 W7        30.58R WCI   6
DAYTON         MOSUNNY   18   2  49 NW6       30.58R WCI  10
WILMINGTON     PTSUNNY   16   1  51 NW7       30.56S WCI   6
HUNTINGTON     CLOUDY    19   6  57 NW6       30.57R WCI  11
CHARLESTON     PTSUNNY   21   6  52 NW6       30.54R WCI  13
PINEVILLE*       N/A     25  14  64 MISG      30.49S
BECKLEY        CLOUDY    19   7  59 N8        30.37R WCI   9
BLUEFIELD      CLOUDY    21  10  62 NW12      30.34S WCI   9
$$

VAZ002-007-008-TNZ017-027-036-066-071-271900
...SOUTHWEST VIRGINIA/EAST TENNESSEE...

CITY           SKY/WX    TMP DP  RH WIND       PRES   REMARKS
WISE*          CLOUDY    27  12  54 NW7       30.38R WCI  19
JONESVILLE*    PTCLDY    28  12  50 NW3       30.48S
ABINGDON*      CLOUDY    29  16  58 N6        30.39S WCI  23
BRISTOL        CLOUDY    36  21  54 CALM      30.43S
KNOXVILLE      MOSUNNY   31  16  54 N7        30.47F WCI  24
OAK RIDGE      SUNNY     34  16  47 VRB6      30.48F WCI  29
CROSSVILLE     SUNNY     26  13  57 VRB5      30.44F WCI  20
NASHVILLE      MOSUNNY   30  10  43 N12       30.57F WCI  20
$$

...KEY TO REMARKS...
VSB - VISIBILITY IN MILES
WCI - WIND CHILL INDEX
HX  - HEAT INDEX

$$



USA.gov is the U.S. government's official web portal to all federal, state and local government web resources and services.